Year,Month,Day,Hour,Minute,Value (Times are PST for temperature in C)
2015,06,21,00,00,14.40
2015,06,21,00,01,14.30
2015,06,21,00,02,14.30
2015,06,21,00,03,14.30
2015,06,21,00,04,14.30
2015,06,21,00,05,14.30
2015,06,21,00,06,14.30
2015,06,21,00,07,14.20
2015,06,21,00,08,14.20
2015,06,21,00,09,14.20
2015,06,21,00,10,14.20
2015,06,21,00,11,14.10
2015,06,21,00,12,14.10
2015,06,21,00,13,14.10
2015,06,21,00,14,14.00
2015,06,21,00,15,14.00
2015,06,21,00,16,14.00
2015,06,21,00,17,13.90
2015,06,21,00,18,13.90
2015,06,21,00,19,13.90
2015,06,21,00,20,13.90
2015,06,21,00,21,13.90
2015,06,21,00,22,13.90
2015,06,21,00,23,13.90
2015,06,21,00,24,13.90
2015,06,21,00,25,13.90
2015,06,21,00,26,13.90
2015,06,21,00,27,13.90
2015,06,21,00,28,14.00
2015,06,21,00,29,13.90
2015,06,21,00,30,13.90
2015,06,21,00,31,13.90
2015,06,21,00,32,13.90
2015,06,21,00,33,13.90
2015,06,21,00,34,13.90
2015,06,21,00,35,13.90
2015,06,21,00,36,13.90
2015,06,21,00,37,13.90
2015,06,21,00,38,13.90
2015,06,21,00,39,13.90
2015,06,21,00,40,13.80
2015,06,21,00,41,13.80
2015,06,21,00,42,13.80
2015,06,21,00,43,13.80
2015,06,21,00,44,13.70
2015,06,21,00,45,13.70
2015,06,21,00,46,13.70
2015,06,21,00,47,13.60
2015,06,21,00,48,13.60
2015,06,21,00,49,13.60
2015,06,21,00,50,13.60
2015,06,21,00,51,13.60
2015,06,21,00,52,13.50
2015,06,21,00,53,13.50
2015,06,21,00,54,13.60
2015,06,21,00,55,13.60
2015,06,21,00,56,13.60
2015,06,21,00,57,13.60
2015,06,21,00,58,13.50
2015,06,21,00,59,13.50
2015,06,21,01,00,13.50
2015,06,21,01,01,13.50
2015,06,21,01,02,13.50
2015,06,21,01,03,13.40
2015,06,21,01,04,13.40
2015,06,21,01,05,13.40
2015,06,21,01,06,13.40
2015,06,21,01,07,13.40
2015,06,21,01,08,13.40
2015,06,21,01,09,13.40
2015,06,21,01,10,13.40
2015,06,21,01,11,13.40
2015,06,21,01,12,13.40
2015,06,21,01,13,13.40
2015,06,21,01,14,13.40
2015,06,21,01,15,13.40
2015,06,21,01,16,13.40
2015,06,21,01,17,13.40
2015,06,21,01,18,13.40
2015,06,21,01,19,13.40
2015,06,21,01,20,13.40
2015,06,21,01,21,13.40
2015,06,21,01,22,13.40
2015,06,21,01,23,13.40
2015,06,21,01,24,13.40
2015,06,21,01,25,13.40
2015,06,21,01,26,13.50
2015,06,21,01,27,13.50
2015,06,21,01,28,13.50
2015,06,21,01,29,13.50
2015,06,21,01,30,13.50
2015,06,21,01,31,13.50
2015,06,21,01,32,13.50
2015,06,21,01,33,13.40
2015,06,21,01,34,13.40
2015,06,21,01,35,13.40
2015,06,21,01,36,13.40
2015,06,21,01,37,13.40
2015,06,21,01,38,13.40
2015,06,21,01,39,13.40
2015,06,21,01,40,13.40
2015,06,21,01,41,13.40
2015,06,21,01,42,13.30
2015,06,21,01,43,13.30
2015,06,21,01,44,13.30
2015,06,21,01,45,13.30
2015,06,21,01,46,13.30
2015,06,21,01,47,13.30
2015,06,21,01,48,13.20
2015,06,21,01,49,13.20
2015,06,21,01,50,13.20
2015,06,21,01,51,13.20
2015,06,21,01,52,13.10
2015,06,21,01,53,13.10
2015,06,21,01,54,13.10
2015,06,21,01,55,13.10
2015,06,21,01,56,13.00
2015,06,21,01,57,13.00
2015,06,21,01,58,12.90
2015,06,21,01,59,12.90
2015,06,21,02,00,12.90
2015,06,21,02,01,12.80
2015,06,21,02,02,12.80
2015,06,21,02,03,12.80
2015,06,21,02,04,12.70
2015,06,21,02,05,12.70
2015,06,21,02,06,12.70
2015,06,21,02,07,12.60
2015,06,21,02,08,12.60
2015,06,21,02,09,12.60
2015,06,21,02,10,12.60
2015,06,21,02,11,12.50
2015,06,21,02,12,12.50
2015,06,21,02,13,12.40
2015,06,21,02,14,12.40
2015,06,21,02,15,12.40
2015,06,21,02,16,12.40
2015,06,21,02,17,12.40
2015,06,21,02,18,12.30
2015,06,21,02,19,12.30
2015,06,21,02,20,12.30
2015,06,21,02,21,12.30
2015,06,21,02,22,12.30
2015,06,21,02,23,12.30
2015,06,21,02,24,12.30
2015,06,21,02,25,12.30
2015,06,21,02,26,12.30
2015,06,21,02,27,12.30
2015,06,21,02,28,12.30
2015,06,21,02,29,12.30
2015,06,21,02,30,12.20
2015,06,21,02,31,12.30
2015,06,21,02,32,12.20
2015,06,21,02,33,12.30
2015,06,21,02,34,12.30
2015,06,21,02,35,12.30
2015,06,21,02,36,12.30
2015,06,21,02,37,12.30
2015,06,21,02,38,12.30
2015,06,21,02,39,12.30
2015,06,21,02,40,12.30
2015,06,21,02,41,12.30
2015,06,21,02,42,12.30
2015,06,21,02,43,12.30
2015,06,21,02,44,12.30
2015,06,21,02,45,12.30
2015,06,21,02,46,12.20
2015,06,21,02,47,12.20
2015,06,21,02,48,12.20
2015,06,21,02,49,12.20
2015,06,21,02,50,12.20
2015,06,21,02,51,12.20
2015,06,21,02,52,12.20
2015,06,21,02,53,12.20
2015,06,21,02,54,12.20
2015,06,21,02,55,12.20
2015,06,21,02,56,12.20
2015,06,21,02,57,12.20
2015,06,21,02,58,12.20
2015,06,21,02,59,12.20
2015,06,21,03,00,12.30
2015,06,21,03,01,12.30
2015,06,21,03,02,12.30
2015,06,21,03,03,12.30
2015,06,21,04,02,11.90
2015,06,21,04,03,11.90
2015,06,21,04,04,11.90
2015,06,21,04,05,11.90
2015,06,21,04,06,11.90
2015,06,21,04,07,11.80
2015,06,21,04,08,11.80
2015,06,21,04,09,11.80
2015,06,21,04,10,11.80
2015,06,21,04,11,11.80
2015,06,21,04,12,11.70
2015,06,21,04,13,11.70
2015,06,21,04,14,11.70
2015,06,21,04,15,11.70
2015,06,21,04,16,11.70
2015,06,21,04,17,11.70
2015,06,21,04,18,11.70
2015,06,21,04,19,11.70
2015,06,21,04,20,11.60
2015,06,21,04,21,11.60
2015,06,21,04,22,11.60
2015,06,21,04,23,11.60
2015,06,21,04,24,11.60
2015,06,21,04,25,11.70
2015,06,21,04,26,11.70
2015,06,21,04,27,11.70
2015,06,21,04,28,11.70
2015,06,21,04,29,11.70
2015,06,21,04,30,11.70
2015,06,21,04,31,11.70
2015,06,21,04,32,11.70
2015,06,21,04,33,11.70
2015,06,21,04,34,11.70
2015,06,21,04,35,11.70
2015,06,21,04,36,11.70
2015,06,21,04,37,11.60
2015,06,21,04,38,11.60
2015,06,21,04,39,11.60
2015,06,21,04,40,11.60
2015,06,21,04,41,11.60
2015,06,21,04,42,11.60
2015,06,21,04,43,11.60
2015,06,21,04,44,11.60
2015,06,21,04,45,11.60
2015,06,21,04,46,11.60
2015,06,21,04,47,11.60
2015,06,21,04,48,11.60
2015,06,21,04,49,11.60
2015,06,21,04,50,11.60
2015,06,21,04,51,11.60
2015,06,21,04,52,11.60
2015,06,21,04,53,11.60
2015,06,21,04,54,11.60
2015,06,21,04,55,11.60
2015,06,21,04,56,11.60
2015,06,21,04,57,11.50
2015,06,21,04,58,11.50
2015,06,21,04,59,11.50
2015,06,21,05,00,11.50
2015,06,21,05,01,11.50
2015,06,21,05,02,11.50
2015,06,21,05,03,11.50
2015,06,21,05,04,11.40
2015,06,21,05,05,11.40
2015,06,21,05,06,11.40
2015,06,21,05,07,11.40
2015,06,21,05,08,11.40
2015,06,21,05,09,11.40
2015,06,21,05,10,11.40
2015,06,21,05,11,11.40
2015,06,21,05,12,11.40
2015,06,21,05,13,11.30
2015,06,21,05,14,11.30
2015,06,21,05,15,11.30
2015,06,21,05,16,11.30
2015,06,21,05,17,11.30
2015,06,21,05,18,11.30
2015,06,21,05,19,11.30
2015,06,21,05,20,11.20
2015,06,21,05,21,11.20
2015,06,21,05,22,11.20
2015,06,21,05,23,11.20
2015,06,21,05,24,11.20
2015,06,21,05,25,11.20
2015,06,21,05,26,11.20
2015,06,21,05,27,11.20
2015,06,21,05,28,11.20
2015,06,21,05,29,11.20
2015,06,21,05,30,11.20
2015,06,21,05,31,11.20
2015,06,21,05,32,11.20
2015,06,21,05,33,11.20
2015,06,21,05,34,11.20
2015,06,21,05,35,11.20
2015,06,21,05,36,11.20
2015,06,21,05,37,11.20
2015,06,21,05,38,11.20
2015,06,21,05,39,11.20
2015,06,21,05,40,11.20
2015,06,21,05,41,11.20
2015,06,21,05,42,11.20
2015,06,21,05,43,11.20
2015,06,21,05,44,11.20
2015,06,21,05,45,11.20
2015,06,21,05,46,11.20
2015,06,21,05,47,11.30
2015,06,21,05,48,11.30
2015,06,21,05,49,11.30
2015,06,21,05,50,11.30
2015,06,21,05,51,11.30
2015,06,21,05,52,11.30
2015,06,21,05,53,11.30
2015,06,21,05,54,11.30
2015,06,21,05,55,11.30
2015,06,21,05,56,11.40
2015,06,21,05,57,11.40
2015,06,21,05,58,11.40
2015,06,21,05,59,11.40
2015,06,21,06,00,11.40
2015,06,21,06,01,11.40
2015,06,21,06,02,11.50
2015,06,21,06,03,11.50
2015,06,21,06,04,11.50
2015,06,21,06,05,11.60
2015,06,21,06,06,11.60
2015,06,21,06,07,11.60
2015,06,21,06,08,11.70
2015,06,21,06,09,11.70
2015,06,21,06,10,11.70
2015,06,21,06,11,11.70
2015,06,21,06,12,11.80
2015,06,21,06,13,11.80
2015,06,21,06,14,11.80
2015,06,21,06,15,11.80
2015,06,21,06,16,11.80
2015,06,21,06,17,11.80
2015,06,21,06,18,11.80
2015,06,21,06,19,11.80
2015,06,21,06,20,11.90
2015,06,21,06,21,11.90
2015,06,21,06,22,11.90
2015,06,21,06,23,11.90
2015,06,21,06,24,11.90
2015,06,21,06,25,11.90
2015,06,21,06,26,11.90
2015,06,21,06,27,11.90
2015,06,21,06,28,12.00
2015,06,21,06,29,12.00
2015,06,21,06,30,12.00
2015,06,21,06,31,12.00
2015,06,21,06,32,12.10
2015,06,21,06,33,12.10
2015,06,21,06,34,12.10
2015,06,21,06,35,12.10
2015,06,21,06,36,12.20
2015,06,21,06,37,12.20
2015,06,21,06,38,12.20
2015,06,21,06,39,12.20
2015,06,21,06,40,12.30
2015,06,21,06,41,12.30
2015,06,21,06,42,12.30
2015,06,21,06,43,12.40
2015,06,21,06,44,12.40
2015,06,21,06,45,12.50
2015,06,21,06,46,12.50
2015,06,21,06,47,12.60
2015,06,21,06,48,12.60
2015,06,21,06,49,12.60
2015,06,21,06,50,12.60
2015,06,21,06,51,12.70
2015,06,21,06,52,12.70
2015,06,21,06,53,12.70
2015,06,21,06,54,12.70
2015,06,21,06,55,12.70
2015,06,21,06,56,12.70
2015,06,21,06,57,12.80
2015,06,21,06,58,12.80
2015,06,21,06,59,12.80
2015,06,21,07,00,12.80
2015,06,21,07,01,12.80
2015,06,21,07,02,12.90
2015,06,21,07,03,12.90
2015,06,21,07,04,12.90
2015,06,21,07,05,13.00
2015,06,21,07,06,13.00
2015,06,21,07,07,13.00
2015,06,21,07,08,13.10
2015,06,21,07,09,13.10
2015,06,21,07,10,13.10
2015,06,21,07,11,13.10
2015,06,21,07,12,13.20
2015,06,21,07,13,13.20
2015,06,21,07,14,13.20
2015,06,21,07,15,13.20
2015,06,21,07,16,13.30
2015,06,21,07,17,13.30
2015,06,21,07,18,13.30
2015,06,21,07,19,13.40
2015,06,21,07,20,13.40
2015,06,21,07,21,13.40
2015,06,21,07,22,13.50
2015,06,21,07,23,13.60
2015,06,21,07,24,13.60
2015,06,21,07,25,13.70
2015,06,21,07,26,13.70
2015,06,21,07,27,13.70
2015,06,21,07,28,13.70
2015,06,21,07,29,13.80
2015,06,21,07,30,13.80
2015,06,21,07,31,13.80
2015,06,21,07,32,13.80
2015,06,21,07,33,13.80
2015,06,21,07,34,13.90
2015,06,21,07,35,13.90
2015,06,21,07,36,13.90
2015,06,21,07,37,13.90
2015,06,21,07,38,13.90
2015,06,21,07,39,14.00
2015,06,21,07,40,14.00
2015,06,21,07,41,14.00
2015,06,21,07,42,14.10
2015,06,21,07,43,14.10
2015,06,21,07,44,14.10
2015,06,21,07,45,14.20
2015,06,21,07,46,14.20
2015,06,21,07,47,14.20
2015,06,21,07,48,14.20
2015,06,21,07,49,14.20
2015,06,21,07,50,14.10
2015,06,21,07,51,14.10
2015,06,21,07,52,14.10
2015,06,21,07,53,14.10
2015,06,21,07,54,14.10
2015,06,21,07,55,14.10
2015,06,21,07,56,14.20
2015,06,21,07,57,14.20
2015,06,21,07,58,14.20
2015,06,21,07,59,14.10
2015,06,21,08,00,14.10
2015,06,21,08,01,14.00
2015,06,21,08,02,14.00
2015,06,21,08,03,13.90
2015,06,21,08,04,13.90
2015,06,21,08,05,13.80
2015,06,21,08,06,13.80
2015,06,21,08,07,13.80
2015,06,21,08,08,13.80
2015,06,21,08,09,13.80
2015,06,21,08,10,13.80
2015,06,21,08,11,13.90
2015,06,21,08,12,13.90
2015,06,21,08,13,13.90
2015,06,21,08,14,13.90
2015,06,21,08,15,14.00
2015,06,21,08,16,14.00
2015,06,21,08,17,14.10
2015,06,21,08,18,14.10
2015,06,21,08,19,14.10
2015,06,21,08,20,14.10
2015,06,21,08,21,14.10
2015,06,21,08,22,14.10
2015,06,21,08,23,14.10
2015,06,21,08,24,14.10
2015,06,21,08,25,14.00
2015,06,21,08,26,14.00
2015,06,21,08,27,14.00
2015,06,21,08,28,14.00
2015,06,21,08,29,14.00
2015,06,21,08,30,14.00
2015,06,21,08,31,14.00
2015,06,21,08,32,14.00
2015,06,21,08,33,14.00
2015,06,21,08,34,14.00
2015,06,21,08,35,14.10
2015,06,21,08,36,14.10
2015,06,21,08,37,14.10
2015,06,21,08,38,14.00
2015,06,21,08,39,14.00
2015,06,21,08,40,14.00
2015,06,21,08,41,13.90
2015,06,21,08,42,13.90
2015,06,21,08,43,13.80
2015,06,21,08,44,13.80
2015,06,21,08,45,13.80
2015,06,21,08,46,13.70
2015,06,21,08,47,13.70
2015,06,21,08,48,13.70
2015,06,21,08,49,13.80
2015,06,21,08,50,13.80
2015,06,21,08,51,13.80
2015,06,21,08,52,13.80
2015,06,21,08,53,13.90
2015,06,21,08,54,13.90
2015,06,21,08,55,14.00
2015,06,21,08,56,14.10
2015,06,21,08,57,14.10
2015,06,21,08,58,14.20
2015,06,21,08,59,14.30
2015,06,21,09,00,14.30
2015,06,21,09,01,14.30
2015,06,21,09,02,14.40
2015,06,21,09,03,14.40
2015,06,21,09,04,14.40
2015,06,21,09,05,14.50
2015,06,21,09,06,14.50
2015,06,21,09,07,14.50
2015,06,21,09,08,14.50
2015,06,21,09,09,14.50
2015,06,21,09,10,14.50
2015,06,21,09,11,14.60
2015,06,21,09,12,14.60
2015,06,21,09,13,14.60
2015,06,21,09,14,14.50
2015,06,21,09,15,14.50
2015,06,21,09,16,14.60
2015,06,21,09,17,14.60
2015,06,21,09,18,14.60
2015,06,21,09,19,14.60
2015,06,21,09,20,14.70
2015,06,21,09,21,14.70
2015,06,21,09,22,14.70
2015,06,21,09,23,14.80
2015,06,21,09,24,14.80
2015,06,21,09,25,14.80
2015,06,21,09,26,14.80
2015,06,21,09,27,14.80
2015,06,21,09,28,14.80
2015,06,21,09,29,14.70
2015,06,21,09,30,14.70
2015,06,21,09,31,14.70
2015,06,21,09,32,14.60
2015,06,21,09,33,14.60
2015,06,21,09,34,14.60
2015,06,21,09,35,14.60
2015,06,21,09,36,14.60
2015,06,21,09,37,14.60
2015,06,21,09,38,14.60
2015,06,21,09,39,14.70
2015,06,21,09,40,14.70
2015,06,21,09,41,14.80
2015,06,21,09,42,14.90
2015,06,21,09,43,15.00
2015,06,21,09,44,15.00
2015,06,21,09,45,15.10
2015,06,21,09,46,15.20
2015,06,21,09,47,15.20
2015,06,21,09,48,15.20
2015,06,21,09,49,15.30
2015,06,21,09,50,15.30
2015,06,21,09,51,15.40
2015,06,21,09,52,15.40
2015,06,21,09,53,15.50
2015,06,21,09,54,15.60
2015,06,21,09,55,15.60
2015,06,21,09,56,15.60
2015,06,21,09,57,15.60
2015,06,21,09,58,15.60
2015,06,21,09,59,15.60
2015,06,21,10,00,15.60
2015,06,21,10,01,15.60
2015,06,21,10,02,15.70
2015,06,21,10,03,15.70
2015,06,21,10,04,15.70
2015,06,21,10,05,15.70
2015,06,21,10,06,15.70
2015,06,21,10,07,15.70
2015,06,21,10,08,15.70
2015,06,21,10,09,15.70
2015,06,21,10,10,15.80
2015,06,21,10,11,15.80
2015,06,21,10,12,15.80
2015,06,21,10,13,15.80
2015,06,21,10,14,15.80
2015,06,21,10,15,15.80
2015,06,21,10,16,15.80
2015,06,21,10,17,15.80
2015,06,21,10,18,15.80
2015,06,21,10,19,15.80
2015,06,21,10,20,15.80
2015,06,21,10,21,15.80
2015,06,21,10,22,15.80
2015,06,21,10,23,15.90
2015,06,21,10,24,15.90
2015,06,21,10,25,16.00
2015,06,21,10,26,16.10
2015,06,21,10,27,16.20
2015,06,21,10,28,16.30
2015,06,21,10,29,16.40
2015,06,21,10,30,16.40
2015,06,21,10,31,16.40
2015,06,21,10,32,16.50
2015,06,21,10,33,16.50
2015,06,21,10,34,16.60
2015,06,21,10,35,16.60
2015,06,21,10,36,16.70
2015,06,21,10,37,16.70
2015,06,21,10,38,16.80
2015,06,21,10,39,16.80
2015,06,21,10,40,16.90
2015,06,21,10,41,16.90
2015,06,21,10,42,17.00
2015,06,21,10,43,17.10
2015,06,21,10,44,17.10
2015,06,21,10,45,17.20
2015,06,21,10,46,17.20
2015,06,21,10,47,17.30
2015,06,21,10,48,17.30
2015,06,21,10,49,17.40
2015,06,21,10,50,17.40
2015,06,21,10,51,17.50
2015,06,21,10,52,17.50
2015,06,21,10,53,17.60
2015,06,21,10,54,17.60
2015,06,21,10,55,17.70
2015,06,21,10,56,17.70
2015,06,21,10,57,17.70
2015,06,21,10,58,17.70
2015,06,21,10,59,17.80
2015,06,21,11,00,17.80
2015,06,21,11,01,17.80
2015,06,21,11,02,17.80
2015,06,21,11,03,17.70
2015,06,21,11,04,17.70
2015,06,21,11,05,17.70
2015,06,21,11,06,17.70
2015,06,21,11,07,17.70
2015,06,21,11,08,17.70
2015,06,21,11,09,17.80
2015,06,21,11,10,17.90
2015,06,21,11,11,17.90
2015,06,21,11,12,18.00
2015,06,21,11,13,18.00
2015,06,21,11,14,18.00
2015,06,21,11,15,18.00
2015,06,21,11,16,18.00
2015,06,21,11,17,17.90
2015,06,21,11,18,18.00
2015,06,21,11,19,18.00
2015,06,21,11,20,18.00
2015,06,21,11,21,18.00
2015,06,21,11,22,18.10
2015,06,21,11,23,18.10
2015,06,21,11,24,18.10
2015,06,21,11,25,18.10
2015,06,21,11,26,18.10
2015,06,21,11,27,18.10
2015,06,21,11,28,18.10
2015,06,21,11,29,18.00
2015,06,21,11,30,18.00
2015,06,21,11,31,18.00
2015,06,21,11,32,17.90
2015,06,21,11,33,17.90
2015,06,21,11,34,18.00
2015,06,21,11,35,18.00
2015,06,21,11,36,18.10
2015,06,21,11,37,18.10
2015,06,21,11,38,18.20
2015,06,21,11,39,18.20
2015,06,21,11,40,18.20
2015,06,21,11,41,18.20
2015,06,21,11,42,18.20
2015,06,21,11,43,18.20
2015,06,21,11,44,18.10
2015,06,21,11,45,18.10
2015,06,21,11,46,18.00
2015,06,21,11,47,18.00
2015,06,21,11,48,18.00
2015,06,21,11,49,18.00
2015,06,21,11,50,18.10
2015,06,21,11,51,18.10
2015,06,21,11,52,18.20
2015,06,21,11,53,18.30
2015,06,21,11,54,18.30
2015,06,21,11,55,18.20
2015,06,21,11,56,18.20
2015,06,21,11,57,18.20
2015,06,21,11,58,18.20
2015,06,21,11,59,18.10
2015,06,21,12,00,18.10
2015,06,21,12,01,18.10
2015,06,21,12,02,18.10
2015,06,21,12,03,18.20
2015,06,21,12,04,18.20
2015,06,21,12,05,18.20
2015,06,21,12,06,18.20
2015,06,21,12,07,18.20
2015,06,21,12,08,18.20
2015,06,21,12,09,18.20
2015,06,21,12,10,18.20
2015,06,21,12,11,18.20
2015,06,21,12,12,18.20
2015,06,21,12,13,18.20
2015,06,21,12,14,18.20
2015,06,21,12,15,18.20
2015,06,21,12,16,18.20
2015,06,21,12,17,18.20
2015,06,21,12,18,18.20
2015,06,21,12,19,18.20
2015,06,21,12,20,18.30
2015,06,21,12,21,18.30
2015,06,21,12,22,18.30
2015,06,21,12,23,18.40
2015,06,21,12,24,18.40
2015,06,21,12,25,18.50
2015,06,21,12,26,18.50
2015,06,21,12,27,18.50
2015,06,21,12,28,18.40
2015,06,21,12,29,18.50
2015,06,21,12,30,18.50
2015,06,21,12,31,18.50
2015,06,21,12,32,18.60
2015,06,21,12,33,18.60
2015,06,21,12,34,18.70
2015,06,21,12,35,18.80
2015,06,21,12,36,18.90
2015,06,21,12,37,19.00
2015,06,21,12,38,19.10
2015,06,21,12,39,19.20
2015,06,21,12,40,19.30
2015,06,21,12,41,19.30
2015,06,21,12,42,19.40
2015,06,21,12,43,19.40
2015,06,21,12,44,19.50
2015,06,21,12,45,19.60
2015,06,21,12,46,19.70
2015,06,21,12,47,19.70
2015,06,21,12,48,19.70
2015,06,21,12,49,19.70
2015,06,21,12,50,19.70
2015,06,21,12,51,19.70
2015,06,21,12,52,19.70
2015,06,21,12,53,19.70
2015,06,21,12,54,19.60
2015,06,21,12,55,19.60
2015,06,21,12,56,19.60
2015,06,21,12,57,19.60
2015,06,21,12,58,19.60
2015,06,21,12,59,19.50
2015,06,21,13,00,19.60
2015,06,21,13,01,19.60
2015,06,21,13,02,19.60
2015,06,21,13,03,19.60
2015,06,21,13,04,19.60
2015,06,21,13,05,19.70
2015,06,21,13,06,19.70
2015,06,21,13,07,19.80
2015,06,21,13,08,19.90
2015,06,21,13,09,20.00
2015,06,21,13,10,20.10
2015,06,21,13,11,20.10
2015,06,21,13,12,20.20
2015,06,21,13,13,20.30
2015,06,21,13,14,20.30
2015,06,21,13,15,20.20
2015,06,21,13,16,20.20
2015,06,21,13,17,20.20
2015,06,21,13,18,20.10
2015,06,21,13,19,20.10
2015,06,21,13,20,20.10
2015,06,21,13,21,20.10
2015,06,21,13,22,20.10
2015,06,21,13,23,20.20
2015,06,21,13,24,20.20
2015,06,21,13,25,20.20
2015,06,21,13,26,20.30
2015,06,21,13,27,20.30
2015,06,21,13,28,20.30
2015,06,21,13,29,20.30
2015,06,21,13,30,20.40
2015,06,21,13,31,20.50
2015,06,21,13,32,20.50
2015,06,21,13,33,20.60
2015,06,21,13,34,20.60
2015,06,21,13,35,20.60
2015,06,21,13,36,20.60
2015,06,21,13,37,20.60
2015,06,21,13,38,20.60
2015,06,21,13,39,20.60
2015,06,21,13,40,20.60
2015,06,21,13,41,20.60
2015,06,21,13,42,20.60
2015,06,21,13,43,20.60
2015,06,21,13,44,20.60
2015,06,21,13,45,20.60
2015,06,21,13,46,20.60
2015,06,21,13,47,20.60
2015,06,21,13,48,20.70
2015,06,21,13,49,20.70
2015,06,21,13,50,20.70
2015,06,21,13,51,20.70
2015,06,21,13,52,20.70
2015,06,21,13,53,20.60
2015,06,21,13,54,20.60
2015,06,21,13,55,20.70
2015,06,21,13,56,20.70
2015,06,21,13,57,20.80
2015,06,21,13,58,20.80
2015,06,21,13,59,20.90
2015,06,21,14,00,20.90
2015,06,21,14,01,20.90
2015,06,21,14,02,21.00
2015,06,21,14,03,21.00
2015,06,21,14,04,21.00
2015,06,21,14,05,21.10
2015,06,21,14,06,21.10
2015,06,21,14,07,21.10
2015,06,21,14,08,21.10
2015,06,21,14,09,21.20
2015,06,21,14,10,21.20
2015,06,21,14,11,21.20
2015,06,21,14,12,21.20
2015,06,21,14,13,21.20
2015,06,21,14,14,21.20
2015,06,21,14,15,21.10
2015,06,21,14,16,21.10
2015,06,21,14,17,21.20
2015,06,21,14,18,21.20
2015,06,21,14,19,21.20
2015,06,21,14,20,21.20
2015,06,21,14,21,21.20
2015,06,21,14,22,21.20
2015,06,21,14,23,21.20
2015,06,21,14,24,21.20
2015,06,21,14,25,21.20
2015,06,21,14,26,21.20
2015,06,21,14,27,21.20
2015,06,21,14,28,21.30
2015,06,21,14,29,21.30
2015,06,21,14,30,21.20
2015,06,21,14,31,21.20
2015,06,21,14,32,21.20
2015,06,21,14,33,21.20
2015,06,21,14,34,21.30
2015,06,21,14,35,21.30
2015,06,21,14,36,21.40
2015,06,21,14,37,21.40
2015,06,21,14,38,21.40
2015,06,21,14,39,21.40
2015,06,21,14,40,21.50
2015,06,21,14,41,21.50
2015,06,21,14,42,21.50
2015,06,21,14,43,21.50
2015,06,21,14,44,21.50
2015,06,21,14,45,21.50
2015,06,21,14,46,21.50
2015,06,21,14,47,21.50
2015,06,21,14,48,21.60
2015,06,21,14,49,21.60
2015,06,21,14,50,21.60
2015,06,21,14,51,21.70
2015,06,21,14,52,21.70
2015,06,21,14,53,21.70
2015,06,21,14,54,21.80
2015,06,21,14,55,21.80
2015,06,21,14,56,21.80
2015,06,21,14,57,21.80
2015,06,21,14,58,21.80
2015,06,21,14,59,21.90
2015,06,21,15,00,22.00
2015,06,21,15,01,22.00
2015,06,21,15,02,22.10
2015,06,21,15,03,22.00
2015,06,21,15,04,22.00
2015,06,21,15,05,22.00
2015,06,21,15,06,22.10
2015,06,21,15,07,22.10
2015,06,21,15,08,22.20
2015,06,21,15,09,22.20
2015,06,21,15,10,22.30
2015,06,21,15,11,22.40
2015,06,21,15,12,22.50
2015,06,21,15,13,22.50
2015,06,21,15,14,22.50
2015,06,21,15,15,22.60
2015,06,21,15,16,22.60
2015,06,21,15,17,22.60
2015,06,21,15,18,22.60
2015,06,21,15,19,22.70
2015,06,21,15,20,22.70
2015,06,21,15,21,22.70
2015,06,21,15,22,22.70
2015,06,21,15,23,22.70
2015,06,21,15,24,22.80
2015,06,21,15,25,22.90
2015,06,21,15,26,23.00
2015,06,21,15,27,23.10
2015,06,21,15,28,23.10
2015,06,21,15,29,23.10
2015,06,21,15,30,23.10
2015,06,21,15,31,23.00
2015,06,21,15,32,22.90
2015,06,21,15,33,22.90
2015,06,21,15,34,22.90
2015,06,21,15,35,22.90
2015,06,21,15,36,22.90
2015,06,21,15,37,22.90
2015,06,21,15,38,22.90
2015,06,21,15,39,23.00
2015,06,21,15,40,23.00
2015,06,21,15,41,23.10
2015,06,21,15,42,23.10
2015,06,21,15,43,23.20
2015,06,21,15,44,23.30
2015,06,21,15,45,23.30
2015,06,21,15,46,23.30
2015,06,21,15,47,23.40
2015,06,21,15,48,23.40
2015,06,21,15,49,23.50
2015,06,21,15,50,23.50
2015,06,21,15,51,23.50
2015,06,21,15,52,23.50
2015,06,21,15,53,23.50
2015,06,21,15,54,23.40
2015,06,21,15,55,23.40
2015,06,21,15,56,23.40
2015,06,21,15,57,23.30
2015,06,21,15,58,23.30
2015,06,21,15,59,23.30
2015,06,21,16,00,23.20
2015,06,21,16,01,23.10
2015,06,21,16,02,23.10
2015,06,21,16,03,23.00
2015,06,21,16,04,22.90
2015,06,21,16,05,22.90
2015,06,21,16,06,22.90
2015,06,21,16,07,22.90
2015,06,21,16,08,22.90
2015,06,21,16,09,22.90
2015,06,21,16,10,22.90
2015,06,21,16,11,22.90
2015,06,21,16,12,23.00
2015,06,21,16,13,23.00
2015,06,21,16,14,23.10
2015,06,21,16,15,23.10
2015,06,21,16,16,23.10
2015,06,21,16,17,23.10
2015,06,21,16,18,23.20
2015,06,21,16,19,23.20
2015,06,21,16,20,23.20
2015,06,21,16,21,23.10
2015,06,21,16,22,23.10
2015,06,21,16,23,23.10
2015,06,21,16,24,23.10
2015,06,21,16,25,23.10
2015,06,21,16,26,23.20
2015,06,21,16,27,23.20
2015,06,21,16,28,23.30
2015,06,21,16,29,23.40
2015,06,21,16,30,23.50
2015,06,21,16,31,23.60
2015,06,21,16,32,23.70
2015,06,21,16,33,23.80
2015,06,21,16,34,23.80
2015,06,21,16,35,23.90
2015,06,21,16,36,24.00
2015,06,21,16,37,24.00
2015,06,21,16,38,24.10
2015,06,21,16,39,24.10
2015,06,21,16,40,24.10
2015,06,21,16,41,24.10
2015,06,21,16,42,24.00
2015,06,21,16,43,24.00
2015,06,21,16,44,24.00
2015,06,21,16,45,23.90
2015,06,21,16,46,24.00
2015,06,21,16,47,24.00
2015,06,21,16,48,24.10
2015,06,21,16,49,24.10
2015,06,21,16,50,24.10
2015,06,21,16,51,24.10
2015,06,21,16,52,24.10
2015,06,21,16,53,24.10
2015,06,21,16,54,24.10
2015,06,21,16,55,24.10
2015,06,21,16,56,24.10
2015,06,21,16,57,24.20
2015,06,21,16,58,24.20
2015,06,21,16,59,24.20
2015,06,21,17,00,24.20
2015,06,21,17,01,24.20
2015,06,21,17,02,24.20
2015,06,21,17,03,24.30
2015,06,21,17,04,24.30
2015,06,21,17,05,24.30
2015,06,21,17,06,24.30
2015,06,21,17,07,24.30
2015,06,21,17,08,24.40
2015,06,21,17,09,24.50
2015,06,21,17,10,24.50
2015,06,21,17,11,24.50
2015,06,21,17,12,24.50
2015,06,21,17,13,24.50
2015,06,21,17,14,24.50
2015,06,21,17,15,24.40
2015,06,21,17,16,24.40
2015,06,21,17,17,24.30
2015,06,21,17,18,24.30
2015,06,21,17,19,24.30
2015,06,21,17,20,24.30
2015,06,21,17,21,24.30
2015,06,21,17,22,24.30
2015,06,21,17,23,24.30
2015,06,21,17,24,24.30
2015,06,21,17,25,24.30
2015,06,21,17,26,24.30
2015,06,21,17,27,24.30
2015,06,21,17,28,24.40
2015,06,21,17,29,24.40
2015,06,21,17,30,24.40
2015,06,21,17,31,24.40
2015,06,21,17,32,24.40
2015,06,21,17,33,24.40
2015,06,21,17,34,24.50
2015,06,21,17,35,24.50
2015,06,21,17,36,24.60
2015,06,21,17,37,24.60
2015,06,21,17,38,24.60
2015,06,21,17,39,24.60
2015,06,21,17,40,24.60
2015,06,21,17,41,24.60
2015,06,21,17,42,24.60
2015,06,21,17,43,24.60
2015,06,21,17,44,24.50
2015,06,21,17,45,24.50
2015,06,21,17,46,24.40
2015,06,21,17,47,24.40
2015,06,21,17,48,24.30
2015,06,21,17,49,24.30
2015,06,21,17,50,24.30
2015,06,21,17,51,24.30
2015,06,21,17,52,24.30
2015,06,21,17,53,24.30
2015,06,21,17,54,24.20
2015,06,21,17,55,24.20
2015,06,21,17,56,24.20
2015,06,21,17,57,24.20
2015,06,21,17,58,24.20
2015,06,21,17,59,24.20
2015,06,21,18,00,24.30
2015,06,21,18,01,24.30
2015,06,21,18,02,24.20
2015,06,21,18,03,24.20
2015,06,21,18,04,24.20
2015,06,21,18,05,24.20
2015,06,21,18,06,24.10
2015,06,21,18,07,24.10
2015,06,21,18,08,24.10
2015,06,21,18,09,24.10
2015,06,21,18,10,24.10
2015,06,21,18,11,24.10
2015,06,21,18,12,24.10
2015,06,21,18,13,24.10
2015,06,21,18,14,24.10
2015,06,21,18,15,24.10
2015,06,21,18,16,24.00
2015,06,21,18,17,24.00